This is the latest recevied weather packets stored in our database for station/object KF0JJO. If no packets are shown the sender has not sent any weather packets the latest 1 day(s).
| Time | Temp. | Humidity | Pressure | Rain* | Wind** | Luminosity | Snow |
|---|---|---|---|---|---|---|---|
| 1777997044 | 8.89° C | 36% | 1042.3 hPa | 0 mm | 0 m/s | 165 W/m² | - |
| 1777996740 | 9.44° C | 35% | 1042.4 hPa | 0 mm | 0.89 m/s, 34° | 122 W/m² | - |
| 1777996436 | 8.89° C | 35% | 1042.2 hPa | 0 mm | 0 m/s | 119 W/m² | - |
| 1777996133 | 8.89° C | 36% | 1042.3 hPa | 0 mm | 0.45 m/s, 40° | 126 W/m² | - |
| 1777995829 | 8.33° C | 36% | 1042.4 hPa | 0 mm | 0 m/s | 124 W/m² | - |
| 1777995526 | 8.33° C | 37% | 1042.4 hPa | 0 mm | 0 m/s | 114 W/m² | - |
| 1777995223 | 8.33° C | 36% | 1042.3 hPa | 0 mm | 0 m/s | 85 W/m² | - |
| 1777994921 | 8.33° C | 38% | 1042.2 hPa | 0 mm | 0.45 m/s, 45° | 88 W/m² | - |
| 1777994618 | 7.78° C | 38% | 1042.3 hPa | 0 mm | 0 m/s | 69 W/m² | - |
| 1777994317 | 7.78° C | 38% | 1042.2 hPa | 0 mm | 0 m/s | 50 W/m² | - |
| 1777994014 | 7.78° C | 38% | 1042.3 hPa | 0 mm | 0.89 m/s, 60° | 62 W/m² | - |
| 1777993711 | 7.78° C | 39% | 1042.3 hPa | 0 mm | 0 m/s | 66 W/m² | - |
| 1777993408 | 7.78° C | 39% | 1042.3 hPa | 0 mm | 0 m/s | 52 W/m² | - |
| 1777993102 | 7.22° C | 38% | 1042.3 hPa | 0 mm | 0 m/s | 52 W/m² | - |
| 1777992801 | 7.22° C | 40% | 1042.1 hPa | 0 mm | 0 m/s | 43 W/m² | - |
| 1777992498 | 7.22° C | 39% | 1042 hPa | 0 mm | 0 m/s | 97 W/m² | - |
| 1777992197 | 7.22° C | 39% | 1041.9 hPa | 0 mm | 0 m/s | 42 W/m² | - |
| 1777991893 | 7.22° C | 41% | 1042.1 hPa | 0 mm | 0.45 m/s, 34° | 42 W/m² | - |
| 1777991591 | 6.67° C | 40% | 1041.8 hPa | 0 mm | 0.45 m/s, 33° | 50 W/m² | - |
| 1777991288 | 6.67° C | 39% | 1041.8 hPa | 0 mm | 0.45 m/s, 25° | 50 W/m² | - |
| 1777990985 | 6.67° C | 39% | 1041.7 hPa | 0 mm | 0.45 m/s, 33° | 42 W/m² | - |
| 1777990683 | 6.67° C | 39% | 1041.9 hPa | 0 mm | 0.45 m/s, 36° | 62 W/m² | - |
| 1777990380 | 6.11° C | 39% | 1041.9 hPa | 0 mm | 0.45 m/s, 27° | 49 W/m² | - |
| 1777990075 | 6.11° C | 41% | 1041.8 hPa | 0 mm | 0 m/s | 39 W/m² | - |
| 1777989772 | 6.11° C | 39% | 1041.9 hPa | 0 mm | 0 m/s | 58 W/m² | - |
* Rain latest hour (hover to see other rain measurements)
** Current wind speed in m/s (hover to see current wind gust speed)